Time,TemperatureF,DewpointF,PressureIn,WindDirection,WindDirectionDegrees,WindSpeedMPH,WindSpeedGustMPH,Humidity,HourlyPrecipIn,Conditions,Clouds,dailyrainin,SolarRadiationWatts/m^2,SoftwareType,DateUTC
2013-06-01 00:02:00,73.0,67.0,-100.00,NW,314,5.0,6.0,82,0.00,,,0.00,0.000000,,2013-06-01 10:02:00,
2013-06-01 00:12:00,73.0,67.0,-100.00,NW,314,5.0,6.0,82,0.00,,,0.00,0.000000,,2013-06-01 10:12:00,
2013-06-01 00:22:00,73.0,67.0,-100.00,NW,314,5.0,6.0,82,0.00,,,0.00,0.000000,,2013-06-01 10:22:00,
2013-06-01 00:32:00,73.0,67.0,-100.00,NW,314,5.0,6.0,82,0.00,,,0.00,0.000000,,2013-06-01 10:32:00,
2013-06-01 00:52:00,73.0,67.0,-100.00,North,5,4.0,6.0,82,0.00,,,0.00,0.000000,,2013-06-01 10:52:00,
2013-06-01 01:02:00,73.0,67.0,-100.00,North,5,4.0,6.0,82,0.00,,,0.00,0.000000,,2013-06-01 11:02:00,
2013-06-01 01:11:00,73.0,67.0,-100.00,North,5,4.0,6.0,82,0.00,,,0.00,0.000000,,2013-06-01 11:11:00,
2013-06-01 01:21:00,73.0,67.0,-100.00,North,5,4.0,6.0,82,0.00,,,0.00,0.000000,,2013-06-01 11:21:00,
2013-06-01 01:32:00,73.0,67.0,-100.00,North,5,4.0,6.0,82,0.00,,,0.00,0.000000,,2013-06-01 11:32:00,
2013-06-01 01:52:00,72.0,65.0,-100.00,NE,41,3.0,6.0,78,0.00,,,0.00,0.000000,,2013-06-01 11:52:00,
2013-06-01 02:01:00,72.0,65.0,-100.00,NE,41,3.0,6.0,78,0.00,,,0.00,0.000000,,2013-06-01 12:01:00,
2013-06-01 02:12:00,72.0,65.0,-100.00,NE,41,3.0,6.0,78,0.00,,,0.00,0.000000,,2013-06-01 12:12:00,
2013-06-01 02:21:00,72.0,65.0,-100.00,NE,41,3.0,6.0,78,0.00,,,0.00,0.000000,,2013-06-01 12:21:00,
2013-06-01 02:32:00,72.0,65.0,-100.00,NE,41,3.0,6.0,78,0.00,,,0.00,0.000000,,2013-06-01 12:32:00,
2013-06-01 02:52:00,73.0,64.0,-100.00,North,8,1.0,4.0,73,0.00,,,0.00,0.000000,,2013-06-01 12:52:00,
2013-06-01 03:01:00,73.0,64.0,-100.00,North,8,1.0,4.0,73,0.00,,,0.00,0.000000,,2013-06-01 13:01:00,
2013-06-01 03:11:00,73.0,64.0,-100.00,North,8,1.0,4.0,73,0.00,,,0.00,0.000000,,2013-06-01 13:11:00,
2013-06-01 03:22:00,73.0,64.0,-100.00,North,8,1.0,4.0,73,0.00,,,0.00,0.000000,,2013-06-01 13:22:00,
2013-06-01 03:32:00,73.0,64.0,-100.00,North,8,1.0,4.0,73,0.00,,,0.00,0.000000,,2013-06-01 13:32:00,
2013-06-01 03:52:00,73.0,63.0,-100.00,East,88,2.0,4.0,72,0.00,,,0.00,0.000000,,2013-06-01 13:52:00,
2013-06-01 04:02:00,73.0,63.0,-100.00,East,88,2.0,4.0,72,0.00,,,0.00,0.000000,,2013-06-01 14:02:00,
2013-06-01 04:11:00,73.0,63.0,-100.00,East,88,2.0,4.0,72,0.00,,,0.00,0.000000,,2013-06-01 14:11:00,
2013-06-01 04:21:00,73.0,63.0,-100.00,East,88,2.0,4.0,72,0.00,,,0.00,0.000000,,2013-06-01 14:21:00,
2013-06-01 04:32:00,73.0,63.0,-100.00,East,88,2.0,4.0,72,0.00,,,0.00,0.000000,,2013-06-01 14:32:00,
2013-06-01 04:52:00,72.0,65.0,-100.00,North,350,2.0,5.0,78,0.00,,,0.00,0.000000,,2013-06-01 14:52:00,
2013-06-01 05:01:00,72.0,65.0,-100.00,North,350,2.0,5.0,78,0.00,,,0.00,0.000000,,2013-06-01 15:01:00,
2013-06-01 05:11:00,72.0,65.0,-100.00,North,350,2.0,5.0,78,0.00,,,0.00,0.000000,,2013-06-01 15:11:00,
2013-06-01 05:21:00,72.0,65.0,-100.00,North,350,2.0,5.0,78,0.00,,,0.00,0.000000,,2013-06-01 15:21:00,
2013-06-01 05:33:00,72.0,65.0,-100.00,North,350,2.0,5.0,78,0.00,,,0.00,0.000000,,2013-06-01 15:33:00,
2013-06-01 05:53:00,72.0,64.0,-100.00,North,4,4.0,5.0,76,0.00,,,0.00,0.000000,,2013-06-01 15:53:00,
2013-06-01 06:03:00,72.0,64.0,-100.00,North,4,4.0,5.0,76,0.00,,,0.00,0.000000,,2013-06-01 16:03:00,
2013-06-01 06:12:00,72.0,64.0,-100.00,North,4,4.0,5.0,76,0.00,,,0.00,0.000000,,2013-06-01 16:12:00,
2013-06-01 06:23:00,72.0,64.0,-100.00,North,4,4.0,5.0,76,0.00,,,0.00,0.000000,,2013-06-01 16:23:00,
2013-06-01 06:33:00,72.0,64.0,-100.00,North,4,4.0,5.0,76,0.00,,,0.00,0.000000,,2013-06-01 16:33:00,
2013-06-01 07:02:00,74.0,65.0,-100.00,ENE,68,2.0,6.0,73,0.00,,,0.00,39.000000,,2013-06-01 17:02:00,
2013-06-01 07:11:00,74.0,65.0,-100.00,ENE,68,2.0,6.0,73,0.00,,,0.00,39.000000,,2013-06-01 17:11:00,
2013-06-01 07:22:00,74.0,65.0,-100.00,ENE,68,2.0,6.0,73,0.00,,,0.00,39.000000,,2013-06-01 17:22:00,
2013-06-01 07:32:00,74.0,65.0,-100.00,ENE,68,2.0,6.0,73,0.00,,,0.00,39.000000,,2013-06-01 17:32:00,
2013-06-01 07:52:00,78.0,62.0,-100.00,NW,314,2.0,6.0,59,0.00,,,0.00,209.000000,,2013-06-01 17:52:00,
2013-06-01 08:01:00,78.0,62.0,-100.00,NW,314,2.0,6.0,59,0.00,,,0.00,209.000000,,2013-06-01 18:01:00,
2013-06-01 08:12:00,78.0,62.0,-100.00,NW,314,2.0,6.0,59,0.00,,,0.00,209.000000,,2013-06-01 18:12:00,
2013-06-01 08:21:00,78.0,62.0,-100.00,NW,314,2.0,6.0,59,0.00,,,0.00,209.000000,,2013-06-01 18:21:00,
2013-06-01 08:32:00,78.0,62.0,-100.00,NW,314,2.0,6.0,59,0.00,,,0.00,209.000000,,2013-06-01 18:32:00,
2013-06-01 08:52:00,83.0,65.0,-100.00,SSW,207,3.0,5.0,55,0.00,,,0.00,393.000000,,2013-06-01 18:52:00,
2013-06-01 09:01:00,83.0,65.0,-100.00,SSW,207,3.0,5.0,55,0.00,,,0.00,393.000000,,2013-06-01 19:01:00,
2013-06-01 09:11:00,83.0,65.0,-100.00,SSW,207,3.0,5.0,55,0.00,,,0.00,393.000000,,2013-06-01 19:11:00,
2013-06-01 09:21:00,83.0,65.0,-100.00,SSW,207,3.0,5.0,55,0.00,,,0.00,393.000000,,2013-06-01 19:21:00,
2013-06-01 09:32:00,83.0,65.0,-100.00,SSW,207,3.0,5.0,55,0.00,,,0.00,393.000000,,2013-06-01 19:32:00,
2013-06-01 09:52:00,85.0,64.0,-100.00,West,278,6.0,10.0,49,0.00,,,0.00,616.000000,,2013-06-01 19:52:00,
2013-06-01 10:01:00,85.0,64.0,-100.00,West,278,6.0,10.0,49,0.00,,,0.00,616.000000,,2013-06-01 20:01:00,
2013-06-01 10:11:00,85.0,64.0,-100.00,West,278,6.0,10.0,49,0.00,,,0.00,616.000000,,2013-06-01 20:11:00,
2013-06-01 10:21:00,85.0,64.0,-100.00,West,278,6.0,10.0,49,0.00,,,0.00,616.000000,,2013-06-01 20:21:00,
2013-06-01 10:32:00,85.0,64.0,-100.00,West,278,6.0,10.0,49,0.00,,,0.00,616.000000,,2013-06-01 20:32:00,
2013-06-01 10:52:00,85.0,68.0,-100.00,WNW,288,7.0,14.0,57,0.00,,,0.00,426.000000,,2013-06-01 20:52:00,
2013-06-01 11:01:00,85.0,68.0,-100.00,WNW,288,7.0,14.0,57,0.00,,,0.00,426.000000,,2013-06-01 21:01:00,
2013-06-01 11:11:00,85.0,68.0,-100.00,WNW,288,7.0,14.0,57,0.00,,,0.00,426.000000,,2013-06-01 21:11:00,
2013-06-01 11:21:00,85.0,68.0,-100.00,WNW,288,7.0,14.0,57,0.00,,,0.00,426.000000,,2013-06-01 21:21:00,
2013-06-01 11:33:00,85.0,68.0,-100.00,WNW,288,7.0,14.0,57,0.00,,,0.00,426.000000,,2013-06-01 21:33:00,
2013-06-01 12:03:00,87.0,68.0,-100.00,SW,229,7.0,12.0,53,0.00,,,0.00,637.000000,,2013-06-01 22:03:00,
2013-06-01 12:12:00,87.0,68.0,-100.00,SW,229,7.0,12.0,53,0.00,,,0.00,637.000000,,2013-06-01 22:12:00,
2013-06-01 12:23:00,87.0,68.0,-100.00,SW,229,7.0,12.0,53,0.00,,,0.00,637.000000,,2013-06-01 22:23:00,
2013-06-01 12:33:00,87.0,68.0,-100.00,SW,229,7.0,12.0,53,0.00,,,0.00,637.000000,,2013-06-01 22:33:00,
2013-06-01 12:53:00,88.0,62.0,-100.00,SW,235,10.0,16.0,42,0.00,,,0.00,979.000000,,2013-06-01 22:53:00,
2013-06-01 13:02:00,88.0,62.0,-100.00,SW,235,10.0,16.0,42,0.00,,,0.00,979.000000,,2013-06-01 23:02:00,
2013-06-01 13:11:00,88.0,62.0,-100.00,SW,235,10.0,16.0,42,0.00,,,0.00,979.000000,,2013-06-01 23:11:00,
2013-06-01 13:21:00,88.0,62.0,-100.00,SW,235,10.0,16.0,42,0.00,,,0.00,979.000000,,2013-06-01 23:21:00,
2013-06-01 13:32:00,88.0,62.0,-100.00,SW,235,10.0,16.0,42,0.00,,,0.00,979.000000,,2013-06-01 23:32:00,
2013-06-01 13:52:00,91.0,67.0,-100.00,WSW,249,10.0,17.0,45,0.00,,,0.00,921.000000,,2013-06-01 23:52:00,
2013-06-01 14:02:00,91.0,67.0,-100.00,WSW,249,10.0,17.0,45,0.00,,,0.00,921.000000,,2013-06-02 00:02:00,
2013-06-01 14:11:00,91.0,67.0,-100.00,WSW,249,10.0,17.0,45,0.00,,,0.00,921.000000,,2013-06-02 00:11:00,
2013-06-01 14:21:00,91.0,67.0,-100.00,WSW,249,10.0,17.0,45,0.00,,,0.00,921.000000,,2013-06-02 00:21:00,
2013-06-01 14:31:00,91.0,67.0,-100.00,WSW,249,10.0,17.0,45,0.00,,,0.00,921.000000,,2013-06-02 00:31:00,
2013-06-01 14:52:00,86.0,64.0,-100.00,SW,227,8.0,15.0,48,0.00,,,0.00,546.000000,,2013-06-02 00:52:00,
2013-06-01 15:01:00,86.0,64.0,-100.00,SW,227,8.0,15.0,48,0.00,,,0.00,546.000000,,2013-06-02 01:01:00,
2013-06-01 15:11:00,86.0,64.0,-100.00,SW,227,8.0,15.0,48,0.00,,,0.00,546.000000,,2013-06-02 01:11:00,
2013-06-01 15:21:00,86.0,64.0,-100.00,SW,227,8.0,15.0,48,0.00,,,0.00,546.000000,,2013-06-02 01:21:00,
2013-06-01 15:32:00,86.0,64.0,-100.00,SW,227,8.0,15.0,48,0.00,,,0.00,546.000000,,2013-06-02 01:32:00,
2013-06-01 15:52:00,90.0,68.0,-100.00,SW,231,8.0,14.0,49,0.00,,,0.00,832.000000,,2013-06-02 01:52:00,
2013-06-01 16:01:00,90.0,68.0,-100.00,SW,231,8.0,14.0,49,0.00,,,0.00,832.000000,,2013-06-02 02:01:00,
2013-06-01 16:12:00,90.0,68.0,-100.00,SW,231,8.0,14.0,49,0.00,,,0.00,832.000000,,2013-06-02 02:12:00,
2013-06-01 16:21:00,90.0,68.0,-100.00,SW,231,8.0,14.0,49,0.00,,,0.00,832.000000,,2013-06-02 02:21:00,
2013-06-01 16:32:00,90.0,68.0,-100.00,SW,231,8.0,14.0,49,0.00,,,0.00,832.000000,,2013-06-02 02:32:00,
2013-06-01 16:52:00,88.0,65.0,-100.00,SE,127,8.0,19.0,47,0.00,,,0.00,562.000000,,2013-06-02 02:52:00,
2013-06-01 17:02:00,88.0,65.0,-100.00,SE,127,8.0,19.0,47,0.00,,,0.00,562.000000,,2013-06-02 03:02:00,
2013-06-01 17:11:00,88.0,65.0,-100.00,SE,127,8.0,19.0,47,0.00,,,0.00,562.000000,,2013-06-02 03:11:00,
2013-06-01 17:21:00,88.0,65.0,-100.00,SE,127,8.0,19.0,47,0.00,,,0.00,562.000000,,2013-06-02 03:21:00,
2013-06-01 17:33:00,88.0,65.0,-100.00,SE,127,8.0,19.0,47,0.00,,,0.00,562.000000,,2013-06-02 03:33:00,
2013-06-01 17:53:00,82.0,66.0,-100.00,East,92,12.0,21.0,59,0.00,,,0.00,254.000000,,2013-06-02 03:53:00,
2013-06-01 18:02:00,82.0,66.0,-100.00,East,92,12.0,21.0,59,0.00,,,0.00,254.000000,,2013-06-02 04:02:00,
2013-06-01 18:13:00,82.0,66.0,-100.00,East,92,12.0,21.0,59,0.00,,,0.00,254.000000,,2013-06-02 04:13:00,
2013-06-01 18:23:00,82.0,66.0,-100.00,East,92,12.0,21.0,59,0.00,,,0.00,254.000000,,2013-06-02 04:23:00,
2013-06-01 18:33:00,82.0,66.0,-100.00,East,92,12.0,21.0,59,0.00,,,0.00,254.000000,,2013-06-02 04:33:00,
2013-06-01 18:53:00,81.0,65.0,-100.00,East,80,10.0,20.0,59,0.00,,,0.00,150.000000,,2013-06-02 04:53:00,
2013-06-01 19:02:00,81.0,65.0,-100.00,East,80,10.0,20.0,59,0.00,,,0.00,150.000000,,2013-06-02 05:02:00,
2013-06-01 19:11:00,81.0,65.0,-100.00,East,80,10.0,20.0,59,0.00,,,0.00,150.000000,,2013-06-02 05:11:00,
2013-06-01 19:22:00,81.0,65.0,-100.00,East,80,10.0,20.0,59,0.00,,,0.00,150.000000,,2013-06-02 05:22:00,
2013-06-01 19:32:00,81.0,65.0,-100.00,East,80,10.0,20.0,59,0.00,,,0.00,150.000000,,2013-06-02 05:32:00,
2013-06-01 19:52:00,77.0,65.0,-100.00,East,100,9.0,14.0,66,0.00,,,0.00,19.000000,,2013-06-02 05:52:00,
2013-06-01 20:01:00,77.0,65.0,-100.00,East,100,9.0,14.0,66,0.00,,,0.00,19.000000,,2013-06-02 06:01:00,
2013-06-01 20:12:00,77.0,65.0,-100.00,East,100,9.0,14.0,66,0.00,,,0.00,19.000000,,2013-06-02 06:12:00,
2013-06-01 20:21:00,77.0,65.0,-100.00,East,100,9.0,14.0,66,0.00,,,0.00,19.000000,,2013-06-02 06:21:00,
2013-06-01 20:31:00,77.0,65.0,-100.00,East,100,9.0,14.0,66,0.00,,,0.00,19.000000,,2013-06-02 06:31:00,
2013-06-01 20:52:00,75.0,67.0,-100.00,ESE,102,7.0,15.0,76,0.00,,,0.00,0.000000,,2013-06-02 06:52:00,
2013-06-01 21:01:00,75.0,67.0,-100.00,ESE,102,7.0,15.0,76,0.00,,,0.00,0.000000,,2013-06-02 07:01:00,
2013-06-01 21:11:00,75.0,67.0,-100.00,ESE,102,7.0,15.0,76,0.00,,,0.00,0.000000,,2013-06-02 07:11:00,
2013-06-01 21:21:00,75.0,67.0,-100.00,ESE,102,7.0,15.0,76,0.00,,,0.00,0.000000,,2013-06-02 07:21:00,
2013-06-01 21:31:00,75.0,67.0,-100.00,ESE,102,7.0,15.0,76,0.00,,,0.00,0.000000,,2013-06-02 07:31:00,
2013-06-01 22:01:00,75.0,68.0,-100.00,ESE,113,7.0,12.0,79,0.00,,,0.00,0.000000,,2013-06-02 08:01:00,
2013-06-01 22:11:00,75.0,68.0,-100.00,ESE,113,7.0,12.0,79,0.00,,,0.00,0.000000,,2013-06-02 08:11:00,
2013-06-01 22:21:00,75.0,68.0,-100.00,ESE,113,7.0,12.0,79,0.00,,,0.00,0.000000,,2013-06-02 08:21:00,
2013-06-01 22:31:00,75.0,68.0,-100.00,ESE,113,7.0,12.0,79,0.00,,,0.00,0.000000,,2013-06-02 08:31:00,
2013-06-01 22:52:00,76.0,67.0,-100.00,East,97,5.0,11.0,74,0.00,,,0.00,0.000000,,2013-06-02 08:52:00,
2013-06-01 23:01:00,76.0,67.0,-100.00,East,97,5.0,11.0,74,0.00,,,0.00,0.000000,,2013-06-02 09:01:00,
2013-06-01 23:11:00,76.0,67.0,-100.00,East,97,5.0,11.0,74,0.00,,,0.00,0.000000,,2013-06-02 09:11:00,
2013-06-01 23:21:00,76.0,67.0,-100.00,East,97,5.0,11.0,74,0.00,,,0.00,0.000000,,2013-06-02 09:21:00,
2013-06-01 23:32:00,76.0,67.0,-100.00,East,97,5.0,11.0,74,0.00,,,0.00,0.000000,,2013-06-02 09:32:00,
2013-06-01 23:53:00,74.0,65.0,-100.00,ESE,106,2.0,7.0,74,0.00,,,0.00,0.000000,,2013-06-02 09:53:00,